Location: Little Maitland River
(43.8022°N, 81.1549°W)
Time: 14:40:06
(UTC+00:00)

Nadezhda 4 Rocket - Pass Details

Date: 09 December 2025
Orbit: 948 x 992 km, 82.9° (Epoch: 19 January)

Event Time Altitude Azimuth Distance (km) Brightness Sun altitude
Rises 10:43:02 0° 200° (SSW) 3,691 6.9 -21.5°
Reaches altitude 10° 10:45:37 10° 205° (SSW) 2,744 6.2 -21.1°
Maximum altitude 10:51:47 55° 282° (WNW) 1,177 4.0 -20.0°
Drops below altitude 10° 10:57:56 10° 360° (N) 2,740 6.2 -18.9°
Sets 11:00:31 0° 5° (N) 3,686 6.9 -18.5°
